Regional Weather Roundup
Issued by NWS

Current Version | Previous Version | Text Only | Print | Product List | Glossary On
Versions: 1 2 3 4 5 6 7 8 9 10 11 12 13 14 15 16 17 18 19 20 21 22 23 24 25 26 27 28
000
ASUS45 KSLC 151310
RWRUT

UTAH REGIONAL WEATHER ROUNDUP
NATIONAL WEATHER SERVICE SALT LAKE CITY UT
600 AM MST FRI DEC 15 2017

UTZ001>011-023>025-151400-

NORTHERN UTAH

CITY           SKY/WX    TMP DP  RH WIND       PRES   REMARKS
BRIGHAM CITY   PTCLDY    20  16  87 CALM      30.38S
DUGWAY         CLEAR      9   7  90 E6        30.35  WCI  -1
HILL AFB       PTCLDY    23  16  74 E13       30.35S WCI  11
LOGAN          CLEAR     15   9  76 CALM      30.38R
OGDEN          PTCLDY    21  16  81 S7        30.35F WCI  12
SALT LAKE CITY PTCLDY    26  22  84 SE6       30.36F WCI  19
TOOELE VALLEY  PTCLDY    19  18  93 SE7       30.36S WCI  10
WENDOVER       MOCLDY    17  14  88 CALM      30.36F FOG
HEBER CITY     FOG       12  10  92 CALM      30.35S VSB 1/4
WEST JORDAN    CLEAR     25  22  90 S6        30.35S WCI  18

$$

UTZ011>015-024>027-151400-

CENTRAL/NORTHEAST UTAH

CITY           SKY/WX    TMP DP  RH WIND       PRES   REMARKS
PROVO AIRPORT  PTCLDY    16  13  88 E3        30.39S
MOAB/CANYONLAN MOCLDY    24  13  62 SE3       30.34S
DELTA          MOCLDY    18  14  86 CALM      30.36F
PRICE          PTCLDY    20  12  71 CALM      30.31S
RICHFIELD      CLEAR     10  10 100 CALM      30.38F FOG
ROOSEVELT      CLOUDY    12   9  85 W5        30.34S WCI   4
VERNAL         CLOUDY    15   9  76 W7        30.32F WCI   5

$$

UTZ013>016-019>022-027-151400-

SOUTHERN UTAH

CITY           SKY/WX    TMP DP  RH WIND       PRES   REMARKS
BRYCE CANYON   PTCLDY     7  -1  70 W5        30.35F WCI  -2
CEDAR CITY     MOCLDY    12   9  87 CALM      30.33F
MILFORD        MOCLDY    13  10  88 S6        30.35F WCI   4
ST GEORGE      MOSUNNY   32  16  51 SE3       30.36S
HANKSVILLE     MOCLDY    14   3  62 CALM      30.38S
KANAB          CLEAR     18   5  57 CALM      30.38S
BLANDING         N/A     32   0  25 CALM      30.37F

$$

REGIONAL REPORTS     COLORADO/ARIZONA

CITY           SKY/WX    TMP DP  RH WIND       PRES   REMARKS
CRAIG, CO      CLOUDY     4  -1  80 W5        30.31F WCI  -5
GRAND JUNCTION CLOUDY    20  11  68 E8        30.35F WCI  10
RIFLE, CO      CLOUDY    13   7  77 CALM      30.39S
MONTROSE, CO   CLOUDY    18   9  68 S8        30.39F WCI   8
CORTEZ, CO     CLOUDY    11   0  61 E3        30.31F
COLORADO CITY    N/A     14   7  73 SE7       30.36S HAZE    WCI   4
PAGE, AZ       MOCLDY    31  11  43 W5        30.33F WCI  26
GRAND CANYON   MOCLDY     9  -5  53 CALM      30.36R
KINGMAN, AZ    PTCLDY    31  13  47 E7        30.28S WCI  24
FLAGSTAFF, AZ  PTCLDY    31 -10  16 E8        30.33R WCI  23

$$

REGIONAL REPORTS    NEVADA/IDAHO/WYOMING

CITY           SKY/WX    TMP DP  RH WIND       PRES   REMARKS
LAS VEGAS, NV  CLEAR     43  17  35 SW7       30.27F
ELY, NY        MOCLDY    15   1  53 S18       30.32F WCI  -2
ELKO, NV       MOCLDY    12   9  87 E5        30.33F WCI   4
POCATELLO, ID  FOG       21  18  88 NE9       30.34F VSB 1   WCI  11
BURLEY, ID     CLOUDY    21  18  88 E7        30.28F FOG     WCI  12
FORT BRIDGER,    N/A     28   8  41 W16       30.26F WCI  16
EVANSTON, WY   CLOUDY    20  15  81 S8        30.28F WCI  10
ROCK SPRINGS,  CLOUDY    28  11  48 W16       30.20F WCI  16

$$




USA.gov is the U.S. government's official web portal to all federal, state and local government web resources and services.